Tracking 25370 objects as of 25-Jan-2022
HD Live streaming from Space Station
objects crossing your sky now

STARLINK-2410

Track STARLINK-2410 now!
10-day predictions
STARLINK-2410 is classified as:


NORAD ID: 47825
Int'l Code: 2021-018AQ
Perigee: 553.2 km
Apogee: 555.5 km
Inclination: 53.1 °
Period: 95.6 minutes
Semi major axis: 6925 km
RCS: Unknown
Launch date: March 11, 2021
Source: United States (US)
Launch site: AIR FORCE EASTERN TEST RANGE (AFETR)
aabbcc
Your satellite tracking list
Your tracking list is empty




NASA's NSSDC Master Catalog

Two Line Element Set (TLE):
1 47825U 21018AQ  22024.79444056  .00001471  00000-0  11766-3 0  9994
2 47825  53.0559 167.3544 0001630  84.1648 275.9527 15.06397721 49771
Source of the keplerian elements: AFSPC